Location: Buffign�court
(47.8126°N, 6.0176°E)
Time: 17:31:20
(UTC+00:00)

Centaur D AC-29 - Pass Details

Date: 16 June 2021
Orbit: 531 x 36306 km, 26.6° (Epoch: 01 August)

Event Time Altitude Azimuth Distance (km) Brightness Sun altitude
Rises 21:05:19 0° 267° (W) 19,506 9.1 -11.1°
Reaches altitude 10° 21:38:48 10° 259° (W) 10,146 7.4 -14.0°
Maximum altitude 21:56:26 21° 220° (SW) 3,951 4.9 -15.3°
Enters shadow 22:00:39 15° 186° (S) 3,102 4.1 -15.6°
